Regional Weather Roundup
Issued by NWS

Home | Current Version | Previous Version | Graphics & Text | Print | Product List | Glossary On
Versions: 1 2 3 4 5 6 7 8 9 10 11 12 13 14 15 16 17 18 19 20 21 22 23 24 25 26 27 28 29 30 31 32 33 34 35 36 37 38 39 40 41 42 43 44 45 46 47 48 49 50
000
ASUS45 KCYS 220010
RWRWY

WYOMING REGIONAL WEATHER ROUNDUP
NATIONAL WEATHER SERVICE CHEYENNE WY
600 PM MDT THU MAY 21 2015

NOTE:  "FAIR" INDICATES FEW OR NO CLOUDS BELOW 12,000 FEET
WITH NO SIGNIFICANT WEATHER AND/OR OBSTRUCTIONS TO VISIBILITY.

WYZ001-220100-
YELLOWSTONE NATIONAL PARK

CITY           SKY/WX    TMP DP  RH WIND       PRES   REMARKS
LK YELLOWSTONE   N/A     45  34  65 VRB6      30.09F
6HR MIN TEMP:  43; 6HR MAX TEMP:  54; 6HR PCP:  0.01;

W YELLOWSTONE  NOT AVBL

$$
WYZ002>013-054>058-071-098>099-220100-
NORTHERN WYOMING

CITY           SKY/WX    TMP DP  RH WIND       PRES   REMARKS
JACKSON        NOT AVBL
CODY           PTSUNNY   61  43  51 E9        29.99F
GREYBULL       FAIR      69  34  27 SW7       29.93F
6HR MIN TEMP:  58; 6HR MAX TEMP:  70;

WORLAND        FAIR      68  42  38 NE7       29.93F
6HR MIN TEMP:  58; 6HR MAX TEMP:  69;

SHERIDAN       CLOUDY    60  42  51 SE14G24   30.02F
6HR MIN TEMP:  58; 6HR MAX TEMP:  63;

BUFFALO        CLOUDY    56  42  59 SE14      30.07F
6HR MIN TEMP:  54; 6HR MAX TEMP:  59;

GILLETTE       FAIR      57  41  55 S22G28    30.09F
6HR MIN TEMP:  52; 6HR MAX TEMP:  59;

HULETT         CLOUDY    61  30  31 E6        30.10F
NEWCASTLE      FAIR      55  37  50 SE20G25   30.13F

$$
WYZ014>020-022>026-101>103-220100-
CENTRAL WYOMING

CITY           SKY/WX    TMP DP  RH WIND       PRES   REMARKS
BIG PINEY      LGT RAIN  51  38  60 S25G37    30.02R
6HR MIN TEMP:  49; 6HR MAX TEMP:  60; 6HR PCP: TRACE;

PINEDALE       FAIR      55  32  41 SE20G31   30.03R
DUBOIS         CLOUDY    52  36  54 SE14G23   30.01F THUNDER
LANDER         CLOUDY    57  38  48 N9        29.97F
6HR MIN TEMP:  53; 6HR MAX TEMP:  61; 6HR PCP: TRACE;

RIVERTON       FAIR      59  40  49 NE6       29.99F
6HR MIN TEMP:  51; 6HR MAX TEMP:  63;

CASPER         FAIR      58  42  55 E16G24    30.03F
6HR MIN TEMP:  53; 6HR MAX TEMP:  61;

DOUGLAS        PTSUNNY   53  42  66 SE20      30.08F
6HR MIN TEMP:  50; 6HR MAX TEMP:  59;


$$
WYZ021-027>030-104>119-220100-
SOUTHERN WYOMING

CITY           SKY/WX    TMP DP  RH WIND       PRES   REMARKS
EVANSTON       CLOUDY    46  41  82 NE8       30.02F
6HR MIN TEMP:  43; 6HR MAX TEMP:  54; 6HR PCP:  0.02;

KEMMERER       RAIN      43  39  87 S9        30.06R
FORT BRIDGER   MOCLDY    48  46  93 N7        30.06S
ROCK SPRINGS   PTSUNNY   54  38  54 NE12      29.99F
6HR MIN TEMP:  51; 6HR MAX TEMP:  60; 6HR PCP: TRACE;

DIXON          FAIR      63  32  31 E8        29.99F
RAWLINS        FAIR      53  37  54 NE18      30.05F
6HR MIN TEMP:  49; 6HR MAX TEMP:  63; 6HR PCP:  0.01;

SARATOGA       FAIR      54  36  50 SW3       30.06F
LARAMIE        CLOUDY    48  46  93 E8        30.10F
6HR MIN TEMP:  42; 6HR MAX TEMP:  61; 6HR PCP:  0.09;

CHEYENNE       CLOUDY    51  42  71 VRB3      30.12F
6HR MIN TEMP:  44; 6HR MAX TEMP:  51;

TORRINGTON     CLOUDY    54  44  69 SE12      30.10F
6HR MIN TEMP:  50; 6HR MAX TEMP:  56;

PINE BLUFFS    CLOUDY    54  45  71 SE12      30.13F

$$



USA.gov is the U.S. government's official web portal to all federal, state and local government web resources and services.